Location: *
(37.5724°S, 58.0067°E)
Time: 08:44:19
(UTC+00:00)

H-2A ROCKET BODY - Pass Details

Date: 18 January 2021
Orbit: 216 x 15031 km, 28.6° (Epoch: 07 March)

Event Time Altitude Azimuth Distance (km) Brightness Sun altitude
Rises 15:34:56 0° 11° (N) 9,707 7.3 -1.7°
Reaches altitude 10° 15:47:45 10° 28° (NNE) 11,361 7.4 -4.0°
Maximum altitude 17:08:15 24° 74° (ENE) 17,995 8.4 -16.8°
Drops below altitude 10° 18:26:31 10° 102° (ESE) 15,685 8.5 -26.3°
Sets 18:42:56 0° 108° (ESE) 14,444 8.4 -27.8°
